Zurück zum Katalog

FENGYUN 1C DEB

AktivSSO
NORAD 31226·DEBRIS·🇨🇳 China

Gestartet May 10, 1999 von Taiyuan Satellite Launch Center

Loading…

Nächste Überflüge (nächste 24 Stunden)

TLE

AktuellSource: Space-Track

Epoche: Sep 14, 2026, 05:10 UTC

1 31226U 99025BLG 26257.21543224  .00000391  00000-0  16250-3 0  9994
2 31226  98.3654 249.8296 0128181 104.9859 256.5552 14.27084669659825

Verfolge FENGYUN 1C DEB in Echtzeit mit AllMySat

Download on the App Store